Find OneWeb SL0581

NORAD ID: 56069 Int'l Des: 2023-043 Owner: ONEWEBN Country: UK Constellation: oneweb operational
LEOCIRCULARPOLARONEWEB_TYPE

当前视图

正在加载3D地球...

关于 OneWeb SL0581

正在加载描述...

即将过境

Passes for default location (London). Set your location on the main map for personalized predictions.

高度历史

Loading altitude history...

两行轨道根数

1 56069U 23043Z 26151.27893597 .00000080 00000-0 17452-3 0 9993
2 56069 87.9103 232.1414 0002457 87.7569 272.3843 13.16595660156736
Epoch: May 31, 2026 • Age: 12 hours

当前状态

高度 1227.4 km
速度 7.24 km/s
星下点 -77.72°S, 111.8°W
发射日期 Mar 26, 2023
运行时间 3.1 years
类型 internet

技术详情

分类 Payload
质量 148.00 kg
干质量 140.00 kg
总质量 148.00 kg
长度 1.30 m
直径 1.00 m
跨度 5.00 m
形状 Trapezoid+2 pan
制造商 ONEWUS
平台类型 ARROW
阶段状态 In Orbit
所有者/国家 ONEWEBN/UK

Most Searched